User: anonymous   Login
Location: Unspecified
(50.7693°N, 0.0000°E)
Time: 09:03:18
(UTC+00:00)
Language:

Transit 2A - Orbit

View from above orbital plane
View from above orbital plane
View from above satellite
View from above satellite

Ground track
Ground track

The orbit data is extracted from the following two-line orbital elements,

1    45U 60007A   19169.66328971 -.00000035 +00000-0 +18209-4 0  9993
2    45 066.6947 262.1773 0260813 222.3944 135.6747 14.33640918013548
Epoch (UTC): 18 June 2019 15:55:08
Eccentricity: 0.0260813
inclination: 66.6947°
perigee height: 593 km
apogee height: 966 km
right ascension of ascending node: 262.1773°
argument of perigee: 222.3944°
revolutions per day: 14.33640918
mean anomaly at epoch: 135.6747°
orbit number at epoch: 1354

The dashed part of the orbit path shows where the satellite is in the earth's shadow,  

DLR